This demonstration page uses our WeatherBlox Daily Observations layout. Learn more.

Left ArrowRight Arrow

41.86663, -103.66717

Hourly Observations for March 15, 2020

Temp ( °F °C ) Dew Point ( °F °C ) Humidity (%) Winds ( mph kmh ) Pressure ( in mb ) Visibility ( mi km ) Precip ( " mm )
12:49 am 00:49 Cloudy 30 -1 27 -3 86 86 SE 15 24 30.38 1029 10 16 N/A
12:53 am 00:53 Cloudy 31 -0.6 27 -2.8 85 85 SE 14 22 30.33 1027 10 16 N/A
1:53 am 01:53 Cloudy 30 -1.1 27 -2.8 88 88 SE 14 22 30.33 1027 10 16 N/A
2:28 am 02:28 Cloudy 30 -1.1 28 -2.2 92 92 SE 13 20 30.40 1029 10 16 N/A
2:53 am 02:53 Cloudy 30 -1.1 28 -2.2 92 92 undefined N/A 30.34 1027 10 16 N/A
3:53 am 03:53 Cloudy 30 -1.1 28 -2.2 92 92 SE 14 22 30.32 1027 10 16 N/A
4:53 am 04:53 Cloudy 30 -1.1 29 -1.7 96 96 undefined N/A 30.30 1026 10 16 N/A
5:53 am 05:53 Cloudy 31 -0.6 28 -2.2 89 89 SE 13 20 30.30 1026 10 16 N/A
6:20 am 06:20 Cloudy 31 -0.6 29 -1.7 92 92 SE 14 22 30.35 1028 10 16 N/A
6:53 am 06:53 Cloudy 32 undefined 29 -1.7 88 88 SE 10 17 30.30 1026 10 16 N/A
7:53 am 07:53 Cloudy 33 0.6 30 -1.1 89 89 SSE 12 19 30.29 1026 10 16 N/A
8:53 am 08:53 Cloudy 34 1.1 30 -1.1 85 85 SSE 15 24 30.28 1026 10 16 N/A
9:53 am 09:53 Cloudy 36 2.2 31 -0.6 82 82 SSE 13 20 30.28 1025 10 16 N/A
10:27 am 10:27 Partly Cloudy 38 3.3 32 undefined 79 79 SSE 14 22 30.27 1025 10 16 N/A
10:41 am 10:41 Mostly Cloudy 38 3.3 32 undefined 79 79 undefined N/A 30.27 1025 10 16 N/A
10:49 am 10:49 Mostly Sunny 39 4 32 undefined 75 75 SSE 14 22 30.26 1025 10 16 N/A
10:53 am 10:53 Mostly Sunny 39 3.9 32 undefined 76 76 SSE 14 22 30.25 1025 10 16 N/A
11:53 am 11:53 Sunny 40 4.4 33 0.6 77 77 SSE 16 26 30.23 1024 10 16 N/A
12:53 pm 12:53 Sunny 42 5.6 34 1.1 73 73 SSE 16 26 30.21 1023 10 16 N/A
1:53 pm 13:53 Sunny 44 6.7 36 2.2 73 73 SSE 13 20 30.18 1022 10 16 N/A
2:53 pm 14:53 Sunny 46 7.8 38 3.3 73 73 SSE 12 19 30.12 1020 10 16 N/A
3:53 pm 15:53 Sunny 46 7.8 38 3.3 73 73 ESE 14 22 30.10 1019 10 16 N/A
4:53 pm 16:53 Sunny 49 9.4 39 3.9 69 69 ESE 14 22 30.07 1018 10 16 N/A
5:53 pm 17:53 Mostly Cloudy 49 9.4 39 3.9 69 69 ESE 14 22 30.07 1018 10 16 N/A
6:53 pm 18:53 Sunny 44 6.7 38 3.3 79 79 SE 15 24 30.07 1018 10 16 N/A
7:53 pm 19:53 Clear 38 3.3 35 1.7 89 89 undefined N/A 30.08 1019 10 16 N/A
8:53 pm 20:53 Clear 37 2.8 35 1.7 93 93 ESE 10 17 30.09 1019 10 16 N/A
9:53 pm 21:53 Clear 37 2.8 34 1.1 89 89 E 10 17 30.09 1019 10 16 N/A
10:53 pm 22:53 Clear 34 1.1 33 0.6 97 97 ESE 9 15 30.09 1019 10 16 N/A
11:31 pm 23:31 Partly Cloudy with Mist and Fog 33 0.6 33 0.6 100 100 E 10 17 30.14 1021 3 4 N/A
11:34 pm 23:34 Mostly Cloudy with Mist and Fog 33 0.6 33 0.6 100 100 E 9 15 30.14 1021 1 2 N/A
11:41 pm 23:41 Mostly Cloudy with Fog 33 0.6 33 0.6 100 100 E 8 13 30.14 1021 1 1 N/A
11:53 pm 23:53 Mostly Cloudy with Fog 32 undefined 32 undefined 100 100 E 9 15 30.09 1019 1 1 N/A

Powered by AerisWeather